Regional Weather Roundup
Issued by NWS Wakefield, VA

Home | Current Version | Previous Version | Text Only | Print | Product List | Glossary On
Versions: 1 2 3 4 5 6 7 8 9 10 11 12 13 14 15 16 17 18 19 20 21 22 23 24 25 26
000
ASUS41 KAKQ 300315
RWRAKQ

REGIONAL WEATHER ROUNDUP
NATIONAL WEATHER SERVICE WAKEFIELD VA
1100 PM EDT THU SEP 29 2016

Note: "fair" indicates few or no clouds below 12,000 feet with no
significant weather and/or obstructions to visibility. * = Denotes
station may not report precipitation (e.g., rain,snow,etc.),
thunder or fog.

VAZ042-051-052>054-056-300400-
NORTHERN VIRGINIA

CITY           SKY/WX    TMP DP  RH WIND       PRES   REMARKS
WASH NATIONAL  CLOUDY    66  64  93 NE14      30.17R
DULLES         LGT RAIN  63  61  93 E12G20    30.16R
FORT BELVOIR   LGT RAIN  64  63  94 VRB5      30.15F
QUANTICO       RAIN      68  64  87 E14G25    30.14F FOG
FREDERICKSBRG* DRIZZLE   66  66 100 NE7       30.13S
STAFFORD*      HVY RAIN  65  65 100 NE6       30.18S
WARRENTON      DRIZZLE   65  61  85 NE8       30.15S
CULPEPER*      DRIZZLE   65  65  99 NE5       30.15F
MANASSAS*      CLOUDY    64  64 100 NE8       30.15S
LEESBURG*      CLOUDY    63  63 100 E8        30.19R
WINCHESTER     RAIN      61  61 100 NE3       30.17S
FRONT ROYAL*   CLOUDY    61  61 100 NE6       30.15S
LURAY*         LGT RAIN N/A N/A N/A N7        30.14S
$$

VAZ048-049-060>072-079>083-300400-
CENTRAL AND SOUTH CENTRAL VIRGINIA

CITY           SKY/WX    TMP DP  RH WIND       PRES   REMARKS
RICHMOND       LGT RAIN  68  67  96 NE7       30.09S FOG
CHESTERFIELD*  CLOUDY    68  55  64 NE3       30.10S
PETERSBURG*    CLOUDY   N/A N/A N/A NE7       30.09S FOG
HANOVER        CLOUDY    67  65  93 VRB5      30.12S
TAPPAHANNOCK*  CLOUDY    68  68 100 NE9G16    30.11S
QUINTON*       CLOUDY    68  68 100 N7        30.08F FOG
CHARLOTTSVILLE CLOUDY    67  64  90 E10       30.11S
GORDONSVILLE*  NOT AVBL
ORANGE*        RAIN      66  66 100 NE10G16   30.14F
LOUISA*        CLOUDY    70  68  94 E7        30.11F FOG
BUMPASS*       CLOUDY    65  65 100 CALM      30.12S
FARMVILLE*     RAIN      70  68  95 E6        30.07S
CREWE*         CLOUDY    68  68 100 E7        30.08F
FORT PICKETT*  CLOUDY   N/A N/A N/A E8        30.08F
CHASE CITY*    CLOUDY    71  69  95 E6        30.06S
CLARKSVILLE*   CLOUDY    72  72 100 E7        30.05S
SOUTH HILL*    CLOUDY    70  69  97 E3        30.12S
LAWRENCEVILLE* CLOUDY    70  68  95 E3        30.07F
EMPORIA*       CLOUDY    70  68  94 NE3       30.08F
$$

VAZ088>098-300400-
SOUTHEAST VIRGINIA

CITY           SKY/WX    TMP DP  RH WIND       PRES   REMARKS
NORFOLK        CLOUDY    73  72  96 E3        30.05S
VIRGINIA BEACH CLOUDY    73  72  96 CALM      30.04S
NORFOLK NAVAL  CLOUDY    75  72  90 E6        30.06F
WEST POINT*    CLOUDY    70  69  96 NE6       30.09F
SALUDA*        CLOUDY    71  71 100 NE12G18   30.08S
NEWPORT NEWS   CLOUDY    73  71  93 NE5       30.06F
LANGLEY AFB    CLOUDY    73  73 100 E7        30.05S
FORT EUSTIS    CLOUDY    73  71  95 NE6       30.04S
WILLIAMSBURG*  PTCLDY    73  72  94 CALM      30.08S
HR EXEC AP*    MOCLDY    70  66  88 CALM      30.08S VSB 1/2
FRANKLIN*      MOCLDY    69  68  97 CALM      30.07S
US460-WAKEFLD  CLOUDY    70  69  97 N3        30.07S
$$

VAZ020-022-025-037-045-300400-
WEST CENTRAL AND SOUTHWEST VIRGINIA

CITY           SKY/WX    TMP DP  RH WIND       PRES   REMARKS
STAUNTON*      DRIZZLE   64  62  92 E10       30.13S
WAYNESBORO*    CLOUDY    64  63  97 E9G22     30.11S
HOT SPRINGS VA RAIN      61  61 100 E9G17     30.12  VSB<1/4
LYNCHBURG      LGT RAIN  68  67  96 E10G21    30.07S
DANVILLE       CLOUDY    72  69  90 VRB5      30.04S
SOUTH BOSTON*  CLOUDY    72  71  95 E6        30.05S
MARTINSVILLE   CLOUDY    69  66  92 SE6       30.06S
ROANOKE        LGT RAIN  66  65  96 CALM      30.06S
BLACKSBURG     HVY RAIN  61  60  98 CALM      30.11S
DUBLIN*        DRIZZLE   61  61  99 NE3       30.09F
MARION*        LGT RAIN  60  59  96 W6        30.11S
HILLSVILLE*    CLOUDY    60  60 100 CALM      30.07S
RICHLANDS*     RAIN      54  54 100 NW6       30.10F
WISE*          CLOUDY    54  52  94 CALM      30.11S
ABINGDON*      CLOUDY    57  56  94 NW3       30.08F
$$

MDZ021>025-VAZ099-100-300400-
SOUTHERN MARYLAND AND THE DELMARVA PENINSULA

CITY           SKY/WX    TMP DP  RH WIND       PRES   REMARKS
PATUXENT RIVER HVY RAIN  67  64  90 E17G24    30.11S FOG
BAY BRIDGE APT LGT RAIN N/A N/A N/A MISG      30.17S
LEONARDTOWN    CLOUDY    64  63  94 NE3       30.13F
DOVER          LGT RAIN  63  63 100 NE14G26   30.19S
GEORGETOWN     LGT RAIN  67 N/A N/A NE20G33   30.15F
EASTON         NOT AVBL
CAMBRIDGE      CLOUDY    64  63  94 E14G22    30.12F
SALISBURY      LGT RAIN  68  67  96 E16G25    30.11F FOG
OCEAN CITY     LGT RAIN N/A N/A N/A E23G37    30.10F
WALLOPS ISLAND CLOUDY    71 N/A N/A NE24G31   30.08F
ACCOMACK*      CLOUDY   N/A N/A N/A E10G17    30.07R
$$

NCZ012>017-030>032-300400-
NORTH CENTRAL AND EASTERN NORTH CAROLINA

CITY           SKY/WX    TMP DP  RH WIND       PRES   REMARKS
ROANOKE RAPIDS CLOUDY    70  70 100 NE3       30.07R
RALEIGH        MOCLDY    73  70  90 E7        30.04R
ELIZABETH CITY MOCLDY    72  71  97 CALM      30.06S
AHOSKIE*       MOCLDY    70  69  98 CALM      30.07S
EDENTON*       MOCLDY    73  73 100 CALM      30.07R
CURRITUCK*     MOCLDY    72  72 100 CALM      30.06S
KILL DEVIL HLS MOCLDY    74  74 100 CALM      30.04R
MANTEO         MOCLDY    73  73 100 CALM      30.05S
CAPE HATTERAS  MOCLDY    78  73  84 S7        30.05R
TARBORO*       MOCLDY    72  71  97 E3        30.06S
GOLDSBORO      CLEAR     72  72 100 E6        30.02R
WASHINGTON     PTCLDY    71  70  98 E3        30.05S
GREENVILLE     PTCLDY    72  72 100 CALM      30.06S
NEW BERN       CLEAR     71  69  93 CALM      30.05F
WILMINGTON     CLEAR     77  72  84 S5        30.02R
$$

VAZ048-300400-
ELSEWHERE

CITY           SKY/WX    TMP DP  RH WIND       PRES   REMARKS
HARRISBURG PA  CLOUDY    60  58  92 E9        30.26R
BALTIMORE      RAIN      63  60  90 E17       30.18F FOG
ANNAPOLIS      LGT RAIN  68  62  81 E13G22    30.17F
ANDREWS AFB    CLOUDY    64  61  88 NE15G24   30.15F
PHILADELPHIA   CLOUDY    61  58  90 NE18G28   30.27F
HENDERSON NC   CLOUDY    69  67  93 E8        30.05S
GREENSBORO     CLOUDY    71  68  90 SE8       30.03S
ROCKY MOUNT    MOCLDY    71  71 100 VRB3      30.05S
$$

VAZ100-300400-
MARINE

STATION/POSITION TIME  TEMP    WIND        PRES    WAVE   SWELL
                       AIR SEA DIR/SP/G            HT/PER HT/PER
                 (UTC) (F)     (DEG/KT/KT) (MB)    (FT/S) (FT/S)
BRANDYWINE LGT   0248   67      80/ 30/ 33   N/A
CAPE MAY NJ      0248   66 69   60/ 16/ 25 1020.9F
LEWES DE         0248   68 70   80/ 31/ 39 1020.8F
OCEAN-CITY-INLET 0248   69 72   90/ 22/ 30 1019.7F
WACHAPREAGUE VA  0248   73 74   50/ 18/ 20 1017.9S
THOMAS POINT MD  0300   65 72   70/ 23/ 26 1022.0F
GOOSES REEF MD   0250   69      90/ 23/ 29 1020.1F
COVE POINT MD    0248   67      90/ 20/ 26 1020.3S
SOLOMONS ISLAND  0248   68 74   50/ 18/ 25   N/A
BISHOPS HEAD MD  0248   68 71   50/ 16/ 23 1019.6R
PINEY POINT MD   0248           80/ 13/ 18   N/A
POTOMAC MD       0250   71      80/ 23/ 29 1018.0R
CAMBRIDGE MD     0248   67 72   50/ 20/ 23 1019.1F
LEWISETTA VA     0248   71 72   90/ 20/ 28 1018.4F
RAPPAHANNOCK LGT 0248           50/ 12/ 14 1018.6R
STINGRAY PT      0250   72      20/ 17/ 19 1018.4R
YORK RVR RNG VA  0248   73      60/ 12/ 13 1017.4F
YORKTOWN VA      0248   72 76   50/ 11/ 13 1017.5F
JAMESTOWN VA     0250   72      60/  6/ 10   N/A
DOMINION TERM VA 0248   75      30/  2/  4 1017.8F
KIPTOPEKE VA     0248      75   80/  6/ 10   N/A
CHES BAY BRIDGE  0248   75 76   50/  8/  9 1017.6R
CAPE HENRY VA    0248   75      70/  5/  6   N/A
WILLOUBY STN VA  0248   74      50/  7/  9   N/A
CAPE HENRY BUOY  0242      76                N/A     6/ 8   2/11
1ST LANDING BUOY 0250   75     100/  6/  8 1017.5R
CAPE CHARLES BUO 0156      76                N/A     6/ 9   2/11
OFFSHORE WE BUOY 0151      75                N/A     8/ 8   2/11
64NM E OF VA BCH 0250   75 74  170/  8/ 10 1017.0R   8/ 8   8/ 8
DUCK PIER NC     0248   76 76  160/  2/  3 1016.9R
44056 DUCK FRF   0241      76                N/A     5/ 8   2/11
OREGON INLET NC  0248   76 78  140/  2/  3 1017.3R
HATTERAS NC      0248   78 80  160/  7/  9 1017.3R
DIAMOND SHLS NC  0250   80 78  170/ 14/ 17 1017.2R   4/ 8   3/ 8
CAPE LOOKOUT NC  0200   79     160/ 14/ 15 1016.9R
$$




USA.gov is the U.S. government's official web portal to all federal, state and local government web resources and services.